Time,TemperatureF,DewpointF,PressureIn,WindDirection,WindDirectionDegrees,WindSpeedMPH,WindSpeedGustMPH,Humidity,HourlyPrecipIn,Conditions,Clouds,dailyrainin,SoftwareType,DateUTC
2013-02-06 00:02:00,26.0,23.0,29.88,NNE,29,2.0,3.0,89,0.00,,,0.00,,2013-02-06 05:02:00,
2013-02-06 00:12:00,26.0,23.0,29.88,NNE,29,2.0,3.0,89,0.00,,,0.00,,2013-02-06 05:12:00,
2013-02-06 00:22:00,26.0,23.0,29.88,NE,49,3.0,3.0,89,0.00,,,0.00,,2013-02-06 05:22:00,
2013-02-06 00:32:00,26.0,23.0,29.89,NE,41,0.0,0.0,89,0.00,,,0.00,,2013-02-06 05:32:00,
2013-02-06 00:41:00,26.0,23.0,29.89,NE,41,0.0,0.0,89,0.00,,,0.00,,2013-02-06 05:41:00,
2013-02-06 00:53:00,26.0,23.0,29.88,NE,45,0.0,0.0,88,0.00,,,0.00,,2013-02-06 05:53:00,
2013-02-06 01:01:00,26.0,23.0,29.88,NE,45,0.0,0.0,88,0.00,,,0.00,,2013-02-06 06:01:00,
2013-02-06 01:11:00,26.0,23.0,29.88,NE,45,0.0,0.0,88,0.00,,,0.00,,2013-02-06 06:11:00,
2013-02-06 01:22:00,27.0,24.0,29.90,NE,42,0.0,0.0,89,0.00,,,0.00,,2013-02-06 06:22:00,
2013-02-06 01:32:00,26.0,23.0,29.89,North,2,0.0,0.0,89,0.00,,,0.00,,2013-02-06 06:32:00,
2013-02-06 01:42:00,26.0,23.0,29.89,North,2,0.0,0.0,89,0.00,,,0.00,,2013-02-06 06:42:00,
2013-02-06 01:52:00,26.0,23.0,29.89,North,357,0.0,0.0,90,0.00,,,0.00,,2013-02-06 06:52:00,
2013-02-06 02:01:00,26.0,23.0,29.89,North,357,0.0,0.0,90,0.00,,,0.00,,2013-02-06 07:01:00,
2013-02-06 02:11:00,26.0,23.0,29.89,North,357,0.0,0.0,90,0.00,,,0.00,,2013-02-06 07:11:00,
2013-02-06 02:22:00,26.0,23.0,29.90,North,2,0.0,0.0,90,0.00,,,0.00,,2013-02-06 07:22:00,
2013-02-06 02:32:00,26.0,23.0,29.89,North,2,0.0,0.0,90,0.00,,,0.00,,2013-02-06 07:32:00,
2013-02-06 02:42:00,26.0,23.0,29.89,North,2,0.0,0.0,90,0.00,,,0.00,,2013-02-06 07:42:00,
2013-02-06 02:51:00,26.0,23.0,29.89,North,2,0.0,0.0,90,0.00,,,0.00,,2013-02-06 07:51:00,
2013-02-06 03:01:00,26.0,23.0,29.88,North,2,0.0,0.0,90,0.00,,,0.00,,2013-02-06 08:01:00,
2013-02-06 03:10:00,26.0,24.0,29.88,North,2,0.0,0.0,91,0.00,,,0.00,,2013-02-06 08:10:00,
2013-02-06 03:11:00,26.0,23.0,29.88,North,2,0.0,0.0,90,0.00,,,0.00,,2013-02-06 08:11:00,
2013-02-06 03:21:00,26.0,24.0,29.88,North,2,0.0,0.0,91,0.00,,,0.00,,2013-02-06 08:21:00,
2013-02-06 03:31:00,26.0,24.0,29.88,North,2,0.0,0.0,91,0.00,,,0.00,,2013-02-06 08:31:00,
2013-02-06 03:42:00,26.0,24.0,29.88,North,2,0.0,0.0,91,0.00,,,0.00,,2013-02-06 08:42:00,
2013-02-06 03:53:00,26.0,24.0,29.88,North,2,0.0,0.0,91,0.00,,,0.00,,2013-02-06 08:53:00,
2013-02-06 04:02:00,26.0,24.0,29.88,North,2,0.0,0.0,91,0.00,,,0.00,,2013-02-06 09:02:00,
2013-02-06 04:22:00,27.0,24.0,29.89,North,2,0.0,0.0,90,0.00,,,0.00,,2013-02-06 09:22:00,
2013-02-06 04:32:00,27.0,24.0,29.90,North,2,0.0,0.0,90,0.00,,,0.00,,2013-02-06 09:32:00,
2013-02-06 04:42:00,27.0,24.0,29.90,North,2,0.0,0.0,90,0.00,,,0.00,,2013-02-06 09:42:00,
2013-02-06 04:52:00,27.0,25.0,29.90,North,2,0.0,0.0,91,0.00,,,0.00,,2013-02-06 09:52:00,
2013-02-06 05:01:00,27.0,25.0,29.90,North,357,0.0,0.0,91,0.00,,,0.00,,2013-02-06 10:01:00,
2013-02-06 05:11:00,27.0,25.0,29.90,North,357,0.0,0.0,91,0.00,,,0.00,,2013-02-06 10:11:00,
2013-02-06 05:21:00,27.0,25.0,29.91,North,357,0.0,0.0,91,0.00,,,0.00,,2013-02-06 10:21:00,
2013-02-06 05:32:00,27.0,25.0,29.91,North,2,0.0,0.0,91,0.00,,,0.00,,2013-02-06 10:32:00,
2013-02-06 05:42:00,27.0,25.0,29.91,North,2,0.0,0.0,91,0.00,,,0.00,,2013-02-06 10:42:00,
2013-02-06 05:52:00,27.0,25.0,29.91,North,357,0.0,0.0,91,0.00,,,0.00,,2013-02-06 10:52:00,
2013-02-06 06:01:00,27.0,25.0,29.91,North,357,0.0,0.0,91,0.00,,,0.00,,2013-02-06 11:01:00,
2013-02-06 06:11:00,27.0,25.0,29.91,North,357,0.0,0.0,91,0.00,,,0.00,,2013-02-06 11:11:00,
2013-02-06 06:22:00,27.0,25.0,29.92,North,2,0.0,0.0,91,0.00,,,0.00,,2013-02-06 11:22:00,
2013-02-06 06:32:00,27.0,25.0,29.92,North,2,0.0,0.0,91,0.00,,,0.00,,2013-02-06 11:32:00,
2013-02-06 06:42:00,27.0,25.0,29.92,North,2,0.0,0.0,91,0.00,,,0.00,,2013-02-06 11:42:00,
2013-02-06 06:52:00,27.0,25.0,29.93,North,2,0.0,0.0,91,0.00,,,0.00,,2013-02-06 11:52:00,
2013-02-06 07:02:00,27.0,25.0,29.95,North,2,0.0,0.0,91,0.00,,,0.00,,2013-02-06 12:02:00,
2013-02-06 07:12:00,27.0,25.0,29.95,North,2,0.0,0.0,91,0.00,,,0.00,,2013-02-06 12:12:00,
2013-02-06 07:22:00,27.0,25.0,29.96,North,357,0.0,0.0,91,0.00,,,0.00,,2013-02-06 12:22:00,
2013-02-06 07:32:00,27.0,25.0,29.96,North,357,0.0,0.0,91,0.00,,,0.00,,2013-02-06 12:32:00,
2013-02-06 07:42:00,27.0,25.0,29.96,North,357,0.0,0.0,91,0.00,,,0.00,,2013-02-06 12:42:00,
2013-02-06 07:52:00,28.0,26.0,29.97,North,2,0.0,0.0,91,0.00,,,0.00,,2013-02-06 12:52:00,
2013-02-06 08:01:00,28.0,26.0,29.98,North,2,0.0,0.0,91,0.00,,,0.00,,2013-02-06 13:01:00,
2013-02-06 08:12:00,28.0,26.0,29.98,North,2,0.0,0.0,91,0.00,,,0.00,,2013-02-06 13:12:00,
2013-02-06 08:22:00,28.0,25.0,29.98,North,357,0.0,0.0,90,0.00,,,0.00,,2013-02-06 13:22:00,
2013-02-06 08:32:00,28.0,25.0,29.98,North,357,0.0,0.0,90,0.00,,,0.00,,2013-02-06 13:32:00,
2013-02-06 08:42:00,28.0,25.0,29.98,North,357,0.0,0.0,90,0.00,,,0.00,,2013-02-06 13:42:00,
2013-02-06 08:52:00,28.0,25.0,29.98,North,2,0.0,0.0,90,0.00,,,0.00,,2013-02-06 13:52:00,
2013-02-06 09:02:00,29.0,26.0,29.99,North,357,0.0,0.0,89,0.00,,,0.00,,2013-02-06 14:02:00,
2013-02-06 09:11:00,29.0,26.0,30.00,West,264,4.0,0.0,89,0.00,,,0.00,,2013-02-06 14:11:00,
2013-02-06 09:22:00,29.0,26.0,30.00,West,264,4.0,0.0,89,0.00,,,0.00,,2013-02-06 14:22:00,
2013-02-06 09:32:00,29.0,26.0,30.00,West,264,4.0,0.0,89,0.00,,,0.00,,2013-02-06 14:32:00,
2013-02-06 09:42:00,29.0,26.0,30.00,West,264,4.0,0.0,89,0.00,,,0.00,,2013-02-06 14:42:00,
2013-02-06 09:52:00,29.0,26.0,30.00,West,264,4.0,0.0,89,0.00,,,0.00,,2013-02-06 14:52:00,
2013-02-06 10:02:00,30.0,27.0,30.01,NW,312,1.0,8.0,87,0.00,,,0.00,,2013-02-06 15:02:00,
2013-02-06 10:11:00,31.0,27.0,30.01,WNW,291,0.0,8.0,86,0.00,,,0.00,,2013-02-06 15:11:00,
2013-02-06 10:21:00,31.0,27.0,30.01,WNW,291,0.0,8.0,86,0.00,,,0.00,,2013-02-06 15:21:00,
2013-02-06 10:32:00,31.0,27.0,30.00,NW,311,0.0,2.0,84,0.00,,,0.00,,2013-02-06 15:32:00,
2013-02-06 10:42:00,32.0,27.0,30.00,NW,308,0.0,2.0,82,0.00,,,0.00,,2013-02-06 15:42:00,
2013-02-06 10:52:00,32.0,27.0,30.00,NW,308,0.0,2.0,82,0.00,,,0.00,,2013-02-06 15:52:00,
2013-02-06 11:01:00,33.0,28.0,30.01,West,268,0.0,2.0,80,0.00,,,0.00,,2013-02-06 16:01:00,
2013-02-06 11:11:00,33.0,28.0,30.01,West,268,0.0,2.0,80,0.00,,,0.00,,2013-02-06 16:11:00,
2013-02-06 11:21:00,34.0,28.0,30.01,WNW,289,0.0,2.0,77,0.00,,,0.00,,2013-02-06 16:21:00,
2013-02-06 11:32:00,35.0,28.0,30.01,WNW,302,0.0,11.0,75,0.01,,,0.01,,2013-02-06 16:32:00,
2013-02-06 11:42:00,35.0,28.0,30.01,WNW,302,0.0,11.0,75,0.01,,,0.01,,2013-02-06 16:42:00,
2013-02-06 11:52:00,36.0,28.0,30.02,NW,306,0.0,11.0,71,0.01,,,0.01,,2013-02-06 16:52:00,
2013-02-06 12:02:00,36.0,26.0,30.01,NW,320,1.0,11.0,68,0.01,,,0.01,,2013-02-06 17:02:00,
2013-02-06 12:11:00,35.0,28.0,30.00,SW,214,11.0,11.0,76,0.01,,,0.01,,2013-02-06 17:11:00,
2013-02-06 12:22:00,35.0,28.0,30.00,SW,214,11.0,11.0,76,0.01,,,0.01,,2013-02-06 17:22:00,
2013-02-06 12:32:00,35.0,29.0,29.99,West,265,0.0,11.0,77,0.01,,,0.02,,2013-02-06 17:32:00,
2013-02-06 12:42:00,36.0,29.0,29.99,West,274,1.0,11.0,77,0.01,,,0.02,,2013-02-06 17:42:00,
2013-02-06 12:52:00,36.0,29.0,29.99,West,274,1.0,11.0,77,0.01,,,0.02,,2013-02-06 17:52:00,
2013-02-06 13:01:00,37.0,30.0,29.98,SW,233,7.0,11.0,75,0.01,,,0.02,,2013-02-06 18:01:00,
2013-02-06 13:11:00,37.0,30.0,29.98,SW,233,7.0,11.0,75,0.01,,,0.02,,2013-02-06 18:11:00,
2013-02-06 13:23:00,37.0,30.0,29.98,SW,233,7.0,11.0,75,0.01,,,0.02,,2013-02-06 18:23:00,
2013-02-06 13:32:00,37.0,29.0,30.00,WSW,255,1.0,5.0,73,0.00,,,0.02,,2013-02-06 18:32:00,
2013-02-06 13:42:00,37.0,29.0,30.00,WSW,255,1.0,5.0,73,0.00,,,0.02,,2013-02-06 18:42:00,
2013-02-06 13:52:00,36.0,29.0,30.01,WSW,246,6.0,6.0,77,0.00,,,0.02,,2013-02-06 18:52:00,
2013-02-06 14:02:00,36.0,29.0,30.00,WSW,241,14.0,14.0,77,0.00,,,0.02,,2013-02-06 19:02:00,
2013-02-06 14:11:00,36.0,29.0,30.00,WSW,241,14.0,14.0,77,0.00,,,0.02,,2013-02-06 19:11:00,
2013-02-06 14:21:00,36.0,29.0,30.01,WSW,249,4.0,5.0,75,0.00,,,0.02,,2013-02-06 19:21:00,
2013-02-06 14:32:00,37.0,29.0,30.01,WNW,283,2.0,12.0,73,0.01,,,0.03,,2013-02-06 19:32:00,
2013-02-06 14:42:00,37.0,29.0,30.01,WNW,283,2.0,12.0,73,0.01,,,0.03,,2013-02-06 19:42:00,
2013-02-06 14:52:00,37.0,28.0,30.01,WSW,237,0.0,12.0,70,0.01,,,0.03,,2013-02-06 19:52:00,
2013-02-06 15:01:00,37.0,28.0,30.01,WSW,237,0.0,12.0,70,0.01,,,0.03,,2013-02-06 20:01:00,
2013-02-06 15:11:00,38.0,23.0,30.02,NNW,328,0.0,12.0,54,0.01,,,0.03,,2013-02-06 20:11:00,
2013-02-06 15:21:00,38.0,23.0,30.02,NNW,328,0.0,12.0,54,0.01,,,0.03,,2013-02-06 20:21:00,
2013-02-06 15:32:00,38.0,21.0,30.03,WNW,293,0.0,7.0,49,0.00,,,0.03,,2013-02-06 20:32:00,
2013-02-06 15:42:00,38.0,21.0,30.03,WNW,293,0.0,7.0,49,0.00,,,0.03,,2013-02-06 20:42:00,
2013-02-06 15:52:00,38.0,21.0,30.04,WNW,293,10.0,10.0,49,0.00,,,0.03,,2013-02-06 20:52:00,
2013-02-06 16:02:00,39.0,21.0,30.04,NW,304,3.0,7.0,48,0.00,,,0.03,,2013-02-06 21:02:00,
2013-02-06 16:11:00,39.0,21.0,30.04,NW,304,3.0,7.0,48,0.00,,,0.03,,2013-02-06 21:11:00,
2013-02-06 16:21:00,38.0,20.0,30.05,WNW,295,2.0,7.0,47,0.00,,,0.03,,2013-02-06 21:21:00,
2013-02-06 16:32:00,38.0,20.0,30.05,WNW,295,2.0,7.0,47,0.00,,,0.03,,2013-02-06 21:32:00,
2013-02-06 16:42:00,38.0,20.0,30.05,WNW,295,2.0,7.0,47,0.00,,,0.03,,2013-02-06 21:42:00,
2013-02-06 16:51:00,38.0,20.0,30.05,NW,318,3.0,14.0,48,0.00,,,0.03,,2013-02-06 21:51:00,
2013-02-06 17:01:00,37.0,20.0,30.06,NW,318,3.0,14.0,49,0.00,,,0.03,,2013-02-06 22:01:00,
2013-02-06 17:11:00,37.0,20.0,30.06,NW,318,3.0,14.0,49,0.00,,,0.03,,2013-02-06 22:11:00,
2013-02-06 17:22:00,36.0,20.0,30.07,WNW,301,4.0,14.0,52,0.00,,,0.03,,2013-02-06 22:22:00,
2013-02-06 17:32:00,36.0,20.0,30.07,WNW,301,4.0,14.0,52,0.00,,,0.03,,2013-02-06 22:32:00,
2013-02-06 17:42:00,36.0,20.0,30.07,WNW,301,4.0,14.0,52,0.00,,,0.03,,2013-02-06 22:42:00,
2013-02-06 17:52:00,35.0,20.0,30.08,NW,304,0.0,0.0,54,0.00,,,0.03,,2013-02-06 22:52:00,
2013-02-06 18:01:00,34.0,20.0,30.09,NW,305,0.0,0.0,56,0.00,,,0.03,,2013-02-06 23:01:00,
2013-02-06 18:11:00,34.0,20.0,30.09,NW,305,0.0,0.0,56,0.00,,,0.03,,2013-02-06 23:11:00,
2013-02-06 18:21:00,33.0,19.0,30.10,NW,304,0.0,0.0,57,0.00,,,0.03,,2013-02-06 23:21:00,
2013-02-06 18:32:00,33.0,20.0,30.12,NW,304,0.0,0.0,58,0.00,,,0.03,,2013-02-06 23:32:00,
2013-02-06 18:42:00,33.0,20.0,30.12,NW,304,0.0,0.0,58,0.00,,,0.03,,2013-02-06 23:42:00,
2013-02-06 18:52:00,33.0,20.0,30.13,WNW,303,0.0,0.0,58,0.00,,,0.03,,2013-02-06 23:52:00,
2013-02-06 19:02:00,33.0,20.0,30.14,WNW,303,0.0,0.0,59,0.00,,,0.03,,2013-02-07 00:02:00,
2013-02-06 19:11:00,33.0,20.0,30.14,WNW,303,0.0,0.0,59,0.00,,,0.03,,2013-02-07 00:11:00,
2013-02-06 19:21:00,33.0,20.0,30.14,WNW,303,0.0,0.0,59,0.00,,,0.03,,2013-02-07 00:21:00,
2013-02-06 19:32:00,32.0,18.0,30.15,WNW,295,0.0,0.0,56,0.00,,,0.03,,2013-02-07 00:32:00,
2013-02-06 19:42:00,32.0,18.0,30.15,WNW,295,0.0,0.0,56,0.00,,,0.03,,2013-02-07 00:42:00,
2013-02-06 19:52:00,32.0,18.0,30.16,WNW,296,0.0,0.0,56,0.00,,,0.03,,2013-02-07 00:52:00,
2013-02-06 20:01:00,32.0,19.0,30.17,WNW,297,0.0,0.0,57,0.00,,,0.03,,2013-02-07 01:01:00,
2013-02-06 20:11:00,32.0,19.0,30.17,WNW,297,0.0,0.0,57,0.00,,,0.03,,2013-02-07 01:11:00,
2013-02-06 20:21:00,32.0,17.0,30.19,WNW,299,2.0,0.0,53,0.00,,,0.03,,2013-02-07 01:21:00,
2013-02-06 20:32:00,32.0,17.0,30.19,WNW,299,2.0,0.0,53,0.00,,,0.03,,2013-02-07 01:32:00,
2013-02-06 20:42:00,32.0,17.0,30.19,WNW,299,2.0,0.0,53,0.00,,,0.03,,2013-02-07 01:42:00,
2013-02-06 20:52:00,32.0,15.0,30.20,NW,318,4.0,0.0,50,0.00,,,0.03,,2013-02-07 01:52:00,
2013-02-06 21:01:00,32.0,15.0,30.20,NW,318,4.0,0.0,50,0.00,,,0.03,,2013-02-07 02:01:00,
2013-02-06 21:12:00,32.0,15.0,30.20,NW,318,4.0,0.0,50,0.00,,,0.03,,2013-02-07 02:12:00,
2013-02-06 21:21:00,31.0,15.0,30.21,WNW,294,6.0,0.0,50,0.00,,,0.03,,2013-02-07 02:21:00,
2013-02-06 21:32:00,31.0,13.0,30.22,NW,306,4.0,7.0,47,0.00,,,0.03,,2013-02-07 02:32:00,
2013-02-06 21:42:00,31.0,13.0,30.22,NW,306,4.0,7.0,47,0.00,,,0.03,,2013-02-07 02:42:00,
2013-02-06 21:51:00,31.0,13.0,30.22,NW,306,4.0,7.0,47,0.00,,,0.03,,2013-02-07 02:51:00,
2013-02-06 22:02:00,30.0,8.0,30.24,NW,320,5.0,7.0,39,0.00,,,0.03,,2013-02-07 03:02:00,
2013-02-06 22:11:00,30.0,8.0,30.24,NW,316,2.0,7.0,38,0.00,,,0.03,,2013-02-07 03:11:00,
2013-02-06 22:21:00,30.0,8.0,30.24,NW,316,2.0,7.0,38,0.00,,,0.03,,2013-02-07 03:21:00,
2013-02-06 22:32:00,30.0,6.0,30.24,NW,320,0.0,10.0,36,0.00,,,0.03,,2013-02-07 03:32:00,
2013-02-06 22:42:00,30.0,6.0,30.24,NW,320,0.0,10.0,36,0.00,,,0.03,,2013-02-07 03:42:00,
2013-02-06 22:52:00,29.0,5.0,30.25,NW,318,5.0,10.0,35,0.00,,,0.03,,2013-02-07 03:52:00,
2013-02-06 23:01:00,29.0,4.0,30.26,NNW,335,8.0,10.0,34,0.00,,,0.03,,2013-02-07 04:01:00,
2013-02-06 23:11:00,29.0,4.0,30.26,NNW,335,8.0,10.0,34,0.00,,,0.03,,2013-02-07 04:11:00,
2013-02-06 23:22:00,29.0,4.0,30.26,NNW,328,7.0,10.0,34,0.00,,,0.03,,2013-02-07 04:22:00,
2013-02-06 23:32:00,28.0,3.0,30.27,WNW,295,7.0,7.0,33,0.00,,,0.03,,2013-02-07 04:32:00,
2013-02-06 23:42:00,28.0,3.0,30.27,WNW,295,7.0,7.0,33,0.00,,,0.03,,2013-02-07 04:42:00,
2013-02-06 23:53:00,28.0,3.0,30.28,NW,311,6.0,7.0,34,0.00,,,0.03,,2013-02-07 04:53:00,